Regional Weather Roundup
Issued by NWS Portland, ME

Current Version | Previous Version | Text Only | Print | Product List | Glossary Off
Versions: 1 2 3 4 5 6 7 8 9 10 11 12 13 14 15 16 17 18 19 20 21 22 23 24 25 26 27 28 29 30 31 32 33 34 35 36 37 38 39 40 41 42 43 44 45 46 47 48 49 50

000
ASUS41 KGYX 251605
RWRGYX
WEATHER ROUNDUP FOR MAINE AND NEW HAMPSHIRE
NATIONAL WEATHER SERVICE GRAY ME
1200 PM EDT TUE APR 25 2017

MEZ002-005-006-010-012-015-018-020-021-024-026-027-029-251700-
MAINE

CITY           SKY/WX    TMP DP  RH WIND       PRES   REMARKS
PORTLAND       LGT RAIN  46  42  86 E12       30.38F
SANFORD        LGT RAIN  44  43  96 NE17      30.36R
BAR HARBOR     CLOUDY    48  31  51 E6        30.44R
WISCASSET      CLOUDY    49  36  61 E9        30.41F
ROCKLAND       PTSUNNY   46  34  62 E9        30.42S
FRYEBURG       LGT RAIN  44  39  82 CALM      30.38F
LEWISTONAUBURN CLOUDY    47  39  74 NE6       30.39F
AUGUSTA        LGT RAIN  49  35  58 SE10      30.40S
WATERVILLE     CLOUDY    54  32  43 VRB7      30.38R
BANGOR         PTSUNNY   55  28  35 E8        30.41F
GREENVILLE       N/A     47  25  42 SE8       30.36S
MILLINOCKET    MOSUNNY   49  22  34 VRB3      30.43F
HOULTON        SUNNY     49  18  29 VRB5      30.42F
PRESQUE ISLE   SUNNY     45  16  31 S8        30.44F
FRENCHVILLE    SUNNY     40  10  29 SE9       30.42F
CARIBOU          N/A    N/A N/A N/A MISG      30.43F
$$

NHZ002-005-008-009-011-012-014-251700-
NEW HAMPSHIRE

CITY           SKY/WX    TMP DP  RH WIND       PRES   REMARKS
PORTSMOUTH     CLOUDY    47  42  82 NE12G18   30.33R
ROCHESTER      LGT RAIN  47  42  83 NE10      30.33F
NASHUA         CLOUDY    52  43  71 E9G16     30.30F
MANCHESTER     CLOUDY    50  40  68 NE13      30.31S
CONCORD        CLOUDY    48  44  86 NE7       30.32F
LACONIA        LGT RAIN  43  40  89 E14       30.34F
PLYMOUTH       LGT RAIN  44  40  87 CALM      30.34F
BERLIN         CLOUDY    55  31  39 S13G20    30.32S
WHITEFIELD     CLOUDY    52  36  54 S12       30.29R
JAFFREY        CLOUDY    47  44  90 VRB3      30.28S
KEENE          CLOUDY    49  43  80 VRB5G18   30.27
LEBANON        LGT RAIN  48  42  80 VRB3      30.29F
MT WASHINGTON  LGTSLEET  30  30 100 SE39        N/A  VSB 1/16WCI  13
$$

VTZ005-007-008-251700-
VERMONT

CITY           SKY/WX    TMP DP  RH WIND       PRES   REMARKS
ST JOHNSBURY     N/A     52  41  66 MISG      30.26R
MONTPELIER     LGT RAIN  51  40  65 S15       30.31S
BURLINGTON     CLOUDY    58  36  43 S7G17     30.22F
$$

MAZ007-012-024-CTZ003-RIZ002-NYZ038-NYZ072-251700-
SOUTHERN NEW ENGLAND AND NY

CITY           SKY/WX    TMP DP  RH WIND       PRES   REMARKS
BOSTON         CLOUDY    48  41  76 NE21G30   30.28F
WORCESTER      LGT RAIN  47  43  86 NE10G29   30.23F
NANTUCKET      LGT RAIN  49  47  93 E15G28    30.17F FOG
PROVIDENCE     CLOUDY    51  49  92 NE16      30.22F
HARTFORD       CLOUDY    53  50  89 NE15      30.20F
ALBANY         LGT RAIN  49  45  86 N7        30.21F
NEW YORK CITY  CLOUDY    56  51  84 NE29G35   30.07F
$$

ANZ081-ANZ082-ANZ150-NHZ014-MEZ023>029-251700-
COASTAL MARINE OBSERVATIONS

STATION/POSITION TIME  TEMP    WIND        PRES    WAVE
                       AIR SEA DIR/SP/G            HT/PER
                 (UTC) (F)     (DEG/KT/KT) (MB)    (FT/S)
MOUNT DESERT ROC 1600   41                 1029.8R
MATINICUS ROCK   1500   42      80/ 20/ 21 1028.7R
ISLE OF SHOALS   1500   43      40/ 20/ 22 1026.5R
JEFFREYS LEDGE   1536      44                N/A     4/13
CASHES LEDGE BUO 1450   43 43              1027.0    3/13
GEORGES BANK BUO 1450   48 41              1025.0    4/11
$$

.............KEY..............
   WCI - WIND CHILL
   TC  - TEMPERATURE IN CELSIUS
   VSB - VISIBILITY IN MILES
   HX  - HEAT INDEX
   FAIR- INDICATES FEW OR NO CLOUDS BELOW 12,000 FT, WITH NO
         SIGNIFICANT WEATHER AND/OR OBSTRUCTIONS TO VISIBILITY.






USA.gov is the U.S. government's official web portal to all federal, state and local government web resources and services.